Weather reports worldwide

Advertisment
Andrewsfield, United Kingdom (3684): temperature & dewpoint: 18.08.2019 06:00:00 - 24.08.2019 06:00:00 (BST)Andrewsfield, United Kingdom (3684): temperature -20cm & temperature -100cm: 18.08.2019 06:00:00 - 24.08.2019 06:00:00 (BST)Andrewsfield, United Kingdom (3684): wind speed & gusts: 18.08.2019 06:00:00 - 24.08.2019 06:00:00 (BST)Andrewsfield, United Kingdom (3684): wind direction: 18.08.2019 06:00:00 - 24.08.2019 06:00:00 (BST)Andrewsfield, United Kingdom (3684): reduced air pressure: 18.08.2019 06:00:00 - 24.08.2019 06:00:00 (BST)Andrewsfield, United Kingdom (3684): visibility: 18.08.2019 06:00:00 - 24.08.2019 06:00:00 (BST)Andrewsfield, United Kingdom (3684): precipitation: 18.08.2019 06:00:00 - 24.08.2019 06:00:00 (BST)
Date & Time tt [°C] td [°C] tt -20cm [°C] tt -100cm [°C] ff [km/h] ff [kn] fx [km/h] fx [kn] dd ppp [hPa] vv [km] rr [mm]
24.08.2019 06:00:00 11,4 11,3 - - 5 3 - - E 1020,9 2,9 0,0
24.08.2019 05:00:00 11,6 11,5 - - 8 4 - - E 1020,9 3,5 0,0
24.08.2019 04:00:00 11,6 11,5 - - 5 3 - - E 1021,2 3,1 0,0
24.08.2019 03:00:00 11,5 11,0 - - 4 2 - - E 1021,6 2,6 0,0
24.08.2019 02:00:00 12,9 12,1 - - 4 2 - - ESE 1022,0 5 0,0
24.08.2019 01:00:00 13,8 12,7 - - 4 2 - - SE 1022,2 11 0,0
24.08.2019 00:00:00 14,2 12,8 - - 8 4 - - ESE 1022,3 17 0,0
23.08.2019 23:00:00 15,6 12,6 - - 9 5 - - ESE 1022,3 30 0,0
23.08.2019 22:00:00 16,6 12,2 - - 11 6 - - ESE 1022,4 40 0,0
23.08.2019 21:00:00 17,6 13,5 - - 9 5 - - ESE 1022,6 30 0,0
23.08.2019 20:00:00 19,7 13,3 - - 11 6 - - ESE 1022,7 50 0,0
23.08.2019 19:00:00 21,9 14,6 - - 16 9 - - ESE 1022,3 27 0,0
23.08.2019 18:00:00 23,6 15,0 - - 16 9 - - SE 1022,5 29 0,0
23.08.2019 17:00:00 23,9 14,8 - - 18 10 - - SE 1022,9 27 0,0
23.08.2019 16:00:00 25,0 15,5 - - 22 12 - - ESE 1022,9 26 0,0
23.08.2019 15:00:00 25,3 15,4 - - 11 6 - - SE 1023,3 28 0,0
23.08.2019 14:00:00 24,6 15,2 - - 9 5 - - SSW 1023,8 24 0,0
23.08.2019 13:00:00 23,9 15,0 - - 8 4 - - SE 1024,3 30 0,0
23.08.2019 12:00:00 22,2 14,6 - - 9 5 - - WSW 1024,8 21 0,0
23.08.2019 11:00:00 21,1 14,0 - - 11 6 - - S 1025,1 35 0,0
23.08.2019 10:00:00 20,2 14,7 17,0 16,5 5 3 - - S 1025,4 45 0,0
23.08.2019 09:00:00 18,1 14,9 - - 4 2 - - SSW 1025,5 40 0,0
23.08.2019 08:00:00 15,5 14,9 - - 8 4 - - W 1025,5 14 0,0
23.08.2019 07:00:00 13,2 13,1 - - 4 2 - - W 1025,4 10 0,0
23.08.2019 06:00:00 12,6 12,3 - - 8 4 - - W 1025,0 5 0,0
23.08.2019 05:00:00 12,8 12,4 - - 4 2 - - SW 1025,0 9 0,0
23.08.2019 04:00:00 13,4 12,6 - - 5 3 - - WSW 1025,1 12 0,0
23.08.2019 03:00:00 13,8 12,8 - - 8 4 - - SSW 1025,0 23 0,0
23.08.2019 02:00:00 13,5 11,2 - - 11 6 - - W 1025,2 30 0,0
23.08.2019 01:00:00 14,9 12,4 - - 8 4 - - WSW 1025,2 26 0,0
23.08.2019 00:00:00 15,7 13,0 - - 9 5 - - W 1025,1 40 0,0
22.08.2019 23:00:00 15,9 12,1 - - 8 4 - - WSW 1024,9 40 0,0
22.08.2019 22:00:00 17,1 12,6 - - 8 4 - - SW 1024,7 45 0,0
22.08.2019 21:00:00 17,3 12,2 - - 8 4 - - W 1024,5 50 0,0
22.08.2019 20:00:00 19,5 12,5 - - 13 7 - - WSW 1023,8 45 0,0
22.08.2019 19:00:00 21,6 13,1 - - 21 11 - - W 1023,4 50 0,0
22.08.2019 18:00:00 22,8 13,4 - - 24 13 - - W 1023,2 27 0,0
22.08.2019 17:00:00 22,6 13,6 - - 26 14 - - WSW 1023,2 50 0,0
22.08.2019 16:00:00 23,2 13,3 - - 24 13 - - W 1023,3 27 0,0
22.08.2019 15:00:00 23,5 12,8 - - 26 14 - - W 1023,3 35 0,0
22.08.2019 14:00:00 22,7 12,2 - - 28 15 - - WSW 1023,5 35 0,0
22.08.2019 13:00:00 22,2 12,2 - - 21 11 - - WSW 1023,9 35 0,0
22.08.2019 12:00:00 21,1 11,8 - - 24 13 - - WSW 1024,0 40 0,0
22.08.2019 11:00:00 19,7 10,4 - - 24 13 - - WSW 1024,3 23 0,0
22.08.2019 10:00:00 17,8 11,2 16,7 16,5 24 13 - - SW 1024,5 35 0,0
22.08.2019 09:00:00 15,4 12,2 - - 21 11 - - WSW 1024,5 25 0,0
22.08.2019 08:00:00 13,1 12,2 - - 13 7 - - SW 1024,5 9 0,0
22.08.2019 07:00:00 11,3 11,1 - - 11 6 - - SW 1024,5 6 0,0
22.08.2019 06:00:00 10,9 10,4 - - 8 4 - - SSW 1024,3 7 0,0
22.08.2019 05:00:00 10,5 10,0 - - 11 6 - - SW 1024,3 8 0,0
22.08.2019 04:00:00 10,0 8,8 - - 8 4 - - SSW 1024,4 9 0,0
22.08.2019 03:00:00 10,5 9,4 - - 5 3 - - SSW 1024,5 12 0,0
22.08.2019 02:00:00 12,1 10,1 - - 9 5 - - SSW 1024,5 20 0,0
22.08.2019 01:00:00 13,1 10,2 - - 9 5 - - S 1024,7 20 0,0
22.08.2019 00:00:00 13,6 9,9 - - 8 4 - - S 1024,9 19 0,0
21.08.2019 23:00:00 14,6 9,9 - - 9 5 - - SSW 1025,3 24 0,0
21.08.2019 22:00:00 15,6 10,2 - - 11 6 - - SSW 1025,2 30 0,0
21.08.2019 21:00:00 17,0 10,5 - - 11 6 - - SSW 1024,9 30 0,0
21.08.2019 20:00:00 18,4 10,6 - - 13 7 - - SSW 1024,6 25 0,0
21.08.2019 19:00:00 20,1 10,2 - - 13 7 - - SSW 1024,4 11 0,0
21.08.2019 18:00:00 21,4 11,1 - - 13 7 - - S 1024,4 24 0,0
21.08.2019 17:00:00 21,2 10,4 - - 16 9 - - SSW 1024,8 45 0,0
21.08.2019 16:00:00 20,7 9,6 - - 16 9 - - SW 1025,2 35 0,0
21.08.2019 15:00:00 21,1 9,4 - - 21 11 - - SW 1025,6 35 0,0
21.08.2019 14:00:00 20,7 10,0 - - 16 9 - - SW 1025,9 45 0,0
21.08.2019 13:00:00 21,1 10,4 - - 18 10 - - SW 1026,3 45 0,0
21.08.2019 12:00:00 20,1 10,9 - - 18 10 - - WSW 1026,7 28 0,0
21.08.2019 11:00:00 18,4 11,6 - - 16 9 - - WSW 1027,0 25 0,0
21.08.2019 10:00:00 17,3 12,0 16,2 16,7 16 9 - - SW 1027,2 40 0,0
21.08.2019 09:00:00 16,1 12,5 - - 15 8 - - SW 1027,4 22 0,0
21.08.2019 08:00:00 13,2 11,0 - - 11 6 - - SW 1027,5 26 0,0
21.08.2019 07:00:00 10,2 9,7 - - 8 4 - - SW 1027,2 20 0,0
21.08.2019 06:00:00 9,3 8,2 - - 9 5 - - WSW 1026,9 16 0,0
21.08.2019 05:00:00 9,7 8,4 - - 9 5 - - WSW 1026,8 22 0,0
21.08.2019 04:00:00 9,2 7,6 - - 11 6 - - WSW 1026,7 25 0,0
21.08.2019 03:00:00 10,2 7,6 - - 9 5 - - WSW 1026,6 29 0,0
21.08.2019 02:00:00 12,1 8,3 - - 8 4 - - SW 1026,4 30 0,0
21.08.2019 01:00:00 11,3 7,6 - - 8 4 - - WSW 1026,5 30 0,0
21.08.2019 00:00:00 11,4 6,7 - - 5 3 - - WSW 1026,4 10 0,0
20.08.2019 23:00:00 12,0 6,3 - - 9 5 - - WSW 1026,2 14 0,0
20.08.2019 22:00:00 12,0 5,9 - - 5 3 - - WSW 1025,9 1,2 0,0
20.08.2019 21:00:00 13,1 5,6 - - 8 4 - - W 1025,4 5 0,0
20.08.2019 20:00:00 16,5 5,7 - - 9 5 - - W 1024,8 40 0,0
20.08.2019 19:00:00 19,3 5,9 - - 16 9 - - W 1024,0 40 0,0
20.08.2019 18:00:00 20,2 7,0 - - 21 11 - - W 1023,4 21 0,0
20.08.2019 17:00:00 19,3 6,1 - - 18 10 - - W 1023,0 16 0,0
20.08.2019 16:00:00 19,9 6,4 - - 16 9 - - WNW 1022,7 30 0,0
20.08.2019 15:00:00 20,9 8,7 - - 28 15 - - WSW 1022,4 28 0,0
20.08.2019 14:00:00 19,8 8,3 - - 21 11 - - W 1022,2 45 0,0
20.08.2019 13:00:00 17,8 7,6 - - 18 10 - - WNW 1022,0 40 0,0
20.08.2019 12:00:00 18,1 8,7 - - 18 10 - - WSW 1021,7 45 0,0
20.08.2019 11:00:00 16,4 9,1 - - 16 9 - - W 1021,7 30 0,0
20.08.2019 10:00:00 16,0 10,2 16,7 16,7 16 9 - - W 1021,6 35 0,0
20.08.2019 09:00:00 14,3 11,0 - - 16 9 - - W 1021,2 23 0,0
20.08.2019 08:00:00 12,1 11,0 - - 13 7 - - WSW 1020,8 21 0,0
20.08.2019 07:00:00 9,9 9,8 - - 9 5 - - WSW 1020,1 14 0,0
20.08.2019 06:00:00 8,1 7,6 - - 9 5 - - WSW 1019,7 12 0,0
20.08.2019 05:00:00 8,9 8,1 - - 8 4 - - SW 1019,3 16 0,0
20.08.2019 04:00:00 9,3 8,2 - - 9 5 - - SW 1019,0 23 0,0
20.08.2019 03:00:00 9,9 8,5 - - 9 5 - - WSW 1018,8 22 0,0
20.08.2019 02:00:00 10,8 9,1 - - 13 7 - - WSW 1018,7 30 0,0
20.08.2019 01:00:00 10,3 8,5 - - 13 7 - - WSW 1018,7 35 0,0
20.08.2019 00:00:00 11,2 8,6 - - 11 6 - - W 1018,5 30 0,0
19.08.2019 23:00:00 12,2 8,9 - - 15 8 - - W 1017,9 45 0,0
19.08.2019 22:00:00 12,7 8,2 - - 11 6 - - WSW 1017,4 45 0,0
19.08.2019 21:00:00 15,5 9,5 - - 21 11 - - W 1016,6 50 0,0
19.08.2019 20:00:00 16,2 8,6 - - 16 9 - - W 1015,8 50 0,0
19.08.2019 19:00:00 16,4 12,3 - - 9 5 - - W 1015,1 50 0,6
19.08.2019 18:00:00 18,5 9,1 - - 16 9 - - WNW 1014,5 24 0,0
19.08.2019 17:00:00 19,1 10,5 - - 16 9 - - W 1014,0 50 0,0
19.08.2019 16:00:00 18,1 12,6 - - 16 9 - - SW 1013,8 50 0,6
19.08.2019 15:00:00 20,2 12,0 - - 26 14 - - W 1013,5 28 0,2
19.08.2019 14:00:00 20,1 10,0 - - 31 17 - - WSW 1013,3 40 0,0
19.08.2019 13:00:00 20,7 11,0 - - 26 14 - - SW 1012,7 30 0,0
19.08.2019 12:00:00 19,1 11,8 - - 28 15 - - WSW 1012,8 40 0,0
19.08.2019 11:00:00 17,9 11,3 - - 28 15 - - WSW 1012,6 30 0,0
19.08.2019 10:00:00 16,7 12,4 16,7 16,7 26 14 - - WSW 1012,2 30 0,0
19.08.2019 09:00:00 15,8 12,8 - - 26 14 - - WSW 1011,7 30 0,0
19.08.2019 08:00:00 14,0 11,9 - - 22 12 - - WSW 1011,4 18 0,0
19.08.2019 07:00:00 12,2 11,1 - - 21 11 - - SW 1011,0 17 0,0
19.08.2019 06:00:00 11,6 10,7 - - 18 10 - - SW 1010,7 15 0,0
19.08.2019 05:00:00 11,6 10,7 - - 18 10 - - SW 1010,4 17 0,0
19.08.2019 04:00:00 11,8 10,7 - - 16 9 - - SW 1010,1 15 0,0
19.08.2019 03:00:00 12,1 11,0 - - 16 9 - - SW 1009,9 17 0,0
19.08.2019 02:00:00 12,5 11,1 - - 16 9 - - SW 1009,7 19 0,0
19.08.2019 01:00:00 12,8 11,1 - - 18 10 - - WSW 1009,3 23 0,0
19.08.2019 00:00:00 12,9 11,4 - - 16 9 - - SW 1009,0 25 0,0
18.08.2019 23:00:00 13,6 11,9 - - 16 9 - - SW 1008,6 40 0,0
18.08.2019 22:00:00 15,0 11,9 - - 18 10 - - SW 1007,9 40 0,0
18.08.2019 21:00:00 16,4 10,8 - - 18 10 - - WSW 1007,2 50 0,0
18.08.2019 20:00:00 17,8 10,4 - - 15 8 - - WSW 1006,3 45 0,0
18.08.2019 19:00:00 19,1 9,4 - - 31 17 - - WSW 1005,7 50 0,0
18.08.2019 18:00:00 20,5 9,5 - - 29 16 50 27 WSW 1005,3 45 0,0
18.08.2019 17:00:00 20,8 9,5 - - 34 18 52 28 WSW 1005,0 23 0,0
18.08.2019 16:00:00 20,5 9,6 - - 31 17 50 27 WSW 1004,7 40 0,0
18.08.2019 15:00:00 20,0 12,4 - - 28 15 46 25 WSW 1004,5 45 0,2
18.08.2019 14:00:00 17,6 12,3 - - 22 12 - - WSW 1004,5 40 0,0
18.08.2019 13:00:00 16,8 13,1 - - 22 12 - - SW 1004,2 30 0,0
18.08.2019 12:00:00 14,7 13,8 - - 9 5 - - S 1003,4 18 2,2
18.08.2019 11:00:00 14,6 12,0 - - 26 14 - - W 1004,3 6 0,4
18.08.2019 10:00:00 17,5 11,8 17,0 16,7 16 9 - - WSW 1002,9 21 0,0
18.08.2019 09:00:00 15,9 13,0 - - 15 8 - - WSW 1002,7 18 0,0
18.08.2019 08:00:00 14,9 13,0 - - 9 5 - - SSW 1002,6 16 0,0
18.08.2019 07:00:00 14,0 12,5 - - 8 4 - - SW 1002,6 17 0,0
18.08.2019 06:00:00 13,9 12,2 - - 8 4 - - SW 1002,6 16 0,0

tt = temperature
td = dewpoint
tt -20cm = temperature -20cm
tt -100cm = temperature -100cm
ff = wind speed
fx = gusts
dd = wind direction
ppp = reduced air pressure
vv = visibility
rr = precipitation

Next stations